Weather History for Salina, KS

Change the Weather History Date:

Saturday, January 15, 2011

  Actual Average Record
Temperature  
Mean Temperature 22 °F 31 °F  
Max Temperature 28 °F 41 °F 66 °F (1921)
Min Temperature 16 °F 20 °F -15 °F (1905)
Degree Days  
Heating Degree Days 43 34  
Month to date heating degree days 630 510  
Since 1 July heating degree days 2503 2474  
Cooling Degree Days 0 0  
Month to date cooling degree days 0 0  
Year to date cooling degree days 0 0  
Moisture  
Dew Point 16 °F    
Average Humidity 84    
Maximum Humidity 100    
Minimum Humidity 68    
Precipitation  
Precipitation 0.00 in 0.02 in 0.33 in (1984)
Month to date precipitation 0.00 0.24  
Year to date precipitation 0.00 0.24  
Sea Level Pressure  
Sea Level Pressure 30.29 in    
Wind  
Wind Speed 7 mph (North)    
Max Wind Speed 15 mph    
Max Gust Speed 18 mph    
Visibility 7 miles    
Events      
T = Trace of Precipitation, MM = Missing Value Source: NWS Daily Summary

Daily Weather History Graph

Daily Weather History Graph

Search for Another Location

Airport:

Trip Planner

Search our weather history database for the weather conditions in past years. The results will help you decide how hot, cold, wet, or windy it might be!

Date:

Astronomy

Jan. 15, 2011 Rise Set
Actual Time 7:47 AM CST 5:32 PM CST
Civil Twilight 7:18 AM CST 6:01 PM CST
Nautical Twilight 6:45 AM CST 6:34 PM CST
Astronomical Twilight 6:13 AM CST 7:06 PM CST
Moon 1:33 PM CST (1/15) 3:51 AM CST (1/15)
Length of Visible Light 10h 43m
Length of Day
9h 45m
Waxing Gibbous, 80% of the Moon is Illuminated
Jan 15
Waxing Gibbous
Jan 19
Full
Jan 26
Last Quarter
Feb 2
New
Feb 11
First Quarter

Hourly Weather History & Observations

Time (CST) Temp. Windchill Dew Point Humidity Pressure Visibility Wind Dir Wind Speed Gust Speed Precip Events Conditions
12:53 AM 19.9 °F 12.1 °F 18.0 °F 92% 30.22 in 8.0 mi SSE 5.8 mph - N/A   Clear
1:53 AM 19.9 °F 14.9 °F 17.1 °F 89% 30.22 in 8.0 mi SSE 3.5 mph - N/A   Clear
2:53 AM 17.6 °F - 15.8 °F 93% 30.20 in 7.0 mi Calm Calm - N/A   Clear
3:53 AM 17.1 °F 6.6 °F 15.1 °F 92% 30.24 in 6.0 mi NNW 8.1 mph - N/A   Clear
4:53 AM 19.0 °F 11.1 °F 17.1 °F 92% 30.27 in 5.0 mi North 5.8 mph - N/A   Clear
5:53 AM 19.4 °F 14.3 °F 15.8 °F 86% 30.24 in 4.0 mi NW 3.5 mph - N/A   Clear
6:28 AM 17.6 °F - 17.6 °F 100% 30.23 in 2.0 mi Calm Calm - N/A   Clear
6:39 AM 17.6 °F - 15.8 °F 93% 30.23 in 1.8 mi Calm Calm - N/A   Clear
6:53 AM 16.0 °F 8.8 °F 15.1 °F 96% 30.29 in 1.5 mi WNW 4.6 mph - N/A   Clear
6:56 AM 15.8 °F 7.2 °F 15.8 °F 100% 30.24 in 7.0 mi WNW 5.8 mph - N/A   Clear
7:53 AM 16.0 °F 8.8 °F 15.1 °F 96% 30.30 in 3.0 mi North 4.6 mph - N/A   Clear
8:53 AM 19.0 °F 13.9 °F 18.0 °F 96% 30.32 in 3.0 mi NNW 3.5 mph - N/A   Clear
9:53 AM 25.0 °F 18.1 °F 19.9 °F 81% 30.33 in 5.0 mi North 5.8 mph - N/A   Haze
10:53 AM 28.0 °F 19.3 °F 21.9 °F 78% 30.34 in 8.0 mi NNW 9.2 mph - N/A   Clear
11:53 AM 26.1 °F 16.2 °F 19.0 °F 75% 30.34 in 10.0 mi North 10.4 mph - N/A   Clear
12:53 PM 26.1 °F 14.5 °F 17.1 °F 69% 30.32 in 9.0 mi NNW 13.8 mph - N/A   Clear
1:53 PM 26.1 °F 15.6 °F 17.1 °F 69% 30.29 in 8.0 mi NNW 11.5 mph - N/A   Clear
2:53 PM 25.0 °F 15.5 °F 16.0 °F 69% 30.29 in 8.0 mi North 9.2 mph - N/A   Clear
3:53 PM 25.0 °F 15.5 °F 16.0 °F 69% 30.28 in 7.0 mi North 9.2 mph - N/A   Clear
4:53 PM 25.0 °F 14.2 °F 16.0 °F 69% 30.28 in 8.0 mi NNE 11.5 mph - N/A   Clear
5:53 PM 24.1 °F 15.2 °F 15.1 °F 69% 30.31 in 9.0 mi NNE 8.1 mph - N/A   Clear
6:53 PM 21.9 °F 10.4 °F 14.0 °F 72% 30.32 in 10.0 mi NNE 11.5 mph - N/A   Clear
7:53 PM 21.0 °F 12.4 °F 12.9 °F 71% 30.34 in 10.0 mi ENE 6.9 mph - N/A   Scattered Clouds
8:53 PM 19.9 °F 11.1 °F 12.9 °F 74% 30.35 in 10.0 mi NE 6.9 mph - N/A   Clear
9:53 PM 19.0 °F 10.0 °F 12.0 °F 74% 30.33 in 10.0 mi NE 6.9 mph - N/A   Clear
10:53 PM 19.0 °F 10.0 °F 12.0 °F 74% 30.32 in 10.0 mi NE 6.9 mph - N/A   Partly Cloudy
11:53 PM 19.0 °F 12.3 °F 12.0 °F 74% 30.31 in 10.0 mi NNE 4.6 mph - N/A   Clear